User: anonymous   Login
Location: Langangen
(59.1000°N, 9.8000°E)
Time: 12:49:56
(UTC+01:00)
Language:

Iridium 60 - Orbit

View from above orbital plane
View from above orbital plane
View from above satellite
View from above satellite

Ground track
Ground track

The orbit data is extracted from the following two-line orbital elements,

1 25276U 98019E   18055.46544222  .00000136  00000-0  41352-4 0  9996
2 25276  86.4008 181.5367 0002023  97.8663 262.2763 14.34219591 42224
Epoch (UTC): 24 February 2018 11:10:14
Eccentricity: 0.0002023
inclination: 86.4008°
perigee height: 776 km
apogee height: 779 km
right ascension of ascending node: 181.5367°
argument of perigee: 97.8663°
revolutions per day: 14.34219591
mean anomaly at epoch: 262.2763°
orbit number at epoch: 4222

The dashed part of the orbit path shows where the satellite is in the earth's shadow,  

DLR